Regional Weather Roundup
Issued by NWS

Home | Current Version | Previous Version | Text Only | Print | Product List | Glossary On
Versions: 1 2 3 4 5 6 7 8 9 10 11 12 13 14 15 16 17 18 19 20 21 22 23 24 25 26 27 28 29 30 31 32 33 34 35 36 37 38 39 40 41 42 43 44 45 46 47 48 49 50
000
ASUS44 KMEG 231210
RWRTN
TENNESSEE HOURLY STATE WEATHER ROUNDUP
NATIONAL WEATHER SERVICE MEMPHIS TN
700 AM CDT SAT AUG 23 2014

TNZ002-004-019-021-049-052-054-088>092-231300-
WEST TENNESSEE

CITY           SKY/WX    TMP DP  RH WIND       PRES   REMARKS
MEMPHIS INTL   PTCLDY    78  72  81 CALM      30.02R
NWS MEMPHIS      N/A     75 N/A N/A MISG        N/A
JACKSON        CLEAR     75  72  90 CALM      30.01S
DYERSBURG      CLEAR     75  66  73 CALM      30.01R
UNION CITY     CLEAR     75  73  94 CALM      29.99R
PARIS          CLEAR     72  70  94 CALM      30.02R
HUNTINGDON     CLEAR     72  71  96 CALM      30.01R
LEXINGTON      CLEAR     72  72 100 CALM      30.02S
SAVANNAH       CLEAR     70  70 100 CALM      30.04R
$$

TNZ008-025-027-028-033-062-065-066-231300-
NORTH MIDDLE TENNESSEE

CITY           SKY/WX    TMP DP  RH WIND       PRES   REMARKS
NASHVILLE      MOCLDY    77  71  82 NW3       30.02S
DICKSON        MOCLDY    72  72 100 CALM      30.04S
PORTLAND       PTCLDY    73  72  94 CALM      30.01S
CLARKSVILLE    LGT RAIN  73  71  93 SE3       30.02R
SMYRNA         PTCLDY    74  73  96 CALM      30.03S
MURFREESBORO   MOCLDY    74  71  90 CALM      30.02R
COOKEVILLE     CLEAR     73  73 100 CALM      30.05R
LIVINGSTON     MOCLDY    72  71  96 SW3       30.06R
GALLATIN       MOCLDY    75  75 100 CALM      30.03R
CROSSVILLE     LGT RAIN  71  67  87 NW7       30.10R
$$

TNZ061-075-076-078-094-096-097-231300-
SOUTH MIDDLE TENNESSEE

CITY           SKY/WX    TMP DP  RH WIND       PRES   REMARKS
LEWISBURG      MOCLDY    72  69  90 CALM      30.04R
FAYETTEVILLE   CLEAR     72  70  94 CALM      30.06R
TULLAHOMA      CLEAR     70  66  88 CALM      30.07R
WINCHESTER     CLEAR     72  70  94 CALM      30.06R
MCMINNVILLE    PTCLDY    73  73 100 CALM      30.06R
COLUMBIA       PTCLDY    73  73 100 CALM      30.03R
SHELBYVILLE    CLEAR     72  72 100 CALM      30.05S
$$

TNZ017-018-042-046-047-231300-
NORTHEAST TENNESSEE

CITY           SKY/WX    TMP DP  RH WIND       PRES   REMARKS
TRI CITIES     PTSUNNY   70  67  90 E3        30.06R
ELIZABETHTON   DRIZZLE   66  66 100 CALM      30.06R
$$

TNZ012-013-036-069-073-074-231300-
CENTRAL EAST TENNESSEE

CITY           SKY/WX    TMP DP  RH WIND       PRES   REMARKS
KNOXVILLE      MOSUNNY   74  71  91 CALM      30.03R
OAK RIDGE      MOSUNNY   74  71  91 CALM      30.04R
GATLINBURG     MOSUNNY   72  70  94 CALM      30.03S
MORRISTOWN     SUNNY     72  70  94 CALM      30.06R
$$

TNZ083-085-099-231300-
SOUTHEAST TENNESSEE

CITY           SKY/WX    TMP DP  RH WIND       PRES   REMARKS
CHATTANOOGA    PTCLDY    75  71  87 CALM      30.03S
$$

SKY/WX REPORTED AS FAIR MEANS FEW OR NO CLOUDS BELOW
12 THOUSAND FEET.



USA.gov is the U.S. government's official web portal to all federal, state and local government web resources and services.